Weather History for Houston / Dunn Helistop, TX

Change the Weather History Date:

Monday, August 5, 2013

  Actual Average (KHOU) Record (KHOU)
Temperature  
Mean Temperature 89 °F 85 °F  
Max Temperature 100 °F 95 °F 103 °F (1964)
Min Temperature 78 °F 75 °F 64 °F (1976)
Cooling Degree Days 24 20  
Month to date cooling degree days 100  
Year to date cooling degree days 1873  
Since 1 June cooling degree days 1221  
Growing Degree Days 39 (Base 50)    
Moisture  
Dew Point 73 °F    
Average Humidity 67    
Maximum Humidity 89    
Minimum Humidity 33    
Precipitation  
Precipitation 0.00 in 0.10 in 2.81 in (2008)
Month to date precipitation 0.51  
Year to date precipitation 28.62  
Sea Level Pressure  
Sea Level Pressure 29.97 in    
Wind  
Wind Speed 7 mph (SW)    
Max Wind Speed 14 mph    
Max Gust Speed 24 mph    
Visibility 7 miles    
Events      
T = Trace of Precipitation, MM = Missing Value Source: NWS Daily Summary

Daily Weather History Graph

Daily Weather History Graph

Search for Another Location

Airport:

Trip Planner

Search our weather history database for the weather conditions in past years. The results will help you decide how hot, cold, wet, or windy it might be!

Date:

Astronomy

Aug. 05, 2013 Rise Set
Actual Time 6:43 AM CDT 8:10 PM CDT
Civil Twilight 6:18 AM CDT 8:36 PM CDT
Nautical Twilight 5:47 AM CDT 9:07 PM CDT
Astronomical Twilight 5:15 AM CDT 9:38 PM CDT
Moon 5:38 AM CDT (8/5) 7:14 PM CDT (8/5)
Length of Visible Light 14h 18m
Length of Day
13h 27m
Waning Crescent, 1% of the Moon is Illuminated
Aug 5
Waning Crescent
Aug 6
New
Aug 14
First Quarter
Aug 20
Full
Aug 28
Last Quarter

Hourly Weather History & Observations

Time (CDT) Temp. Heat Index Dew Point Humidity Pressure Visibility Wind Dir Wind Speed Gust Speed Precip Events Conditions
12:15 AM 80.6 °F 86.2 °F 75.2 °F 84% 30.01 in 7.0 mi SW 3.5 mph - N/A   Clear
12:35 AM 80.6 °F 86.2 °F 75.2 °F 84% 30.01 in 7.0 mi SW 8.1 mph - N/A   Clear
12:55 AM 80.6 °F 86.2 °F 75.2 °F 84% 30.01 in 7.0 mi SW 6.9 mph - N/A   Clear
1:15 AM 80.6 °F 86.2 °F 75.2 °F 84% 30.01 in 7.0 mi SW 8.1 mph - N/A   Clear
1:35 AM 80.6 °F 86.2 °F 75.2 °F 84% 30.01 in 7.0 mi SW 5.8 mph - N/A   Clear
1:55 AM 80.6 °F 86.2 °F 75.2 °F 84% 30.00 in 7.0 mi SW 9.2 mph - N/A   Clear
2:15 AM 80.6 °F 86.2 °F 75.2 °F 84% 30.00 in 6.0 mi SSW 6.9 mph - N/A   Clear
2:35 AM 80.6 °F 86.2 °F 75.2 °F 84% 30.00 in 7.0 mi SW 8.1 mph - N/A   Clear
2:55 AM 80.6 °F 86.2 °F 75.2 °F 84% 30.00 in 7.0 mi SW 8.1 mph - N/A   Clear
3:15 AM 80.6 °F 86.2 °F 75.2 °F 84% 30.00 in 7.0 mi SW 6.9 mph 17.3 mph N/A   Clear
3:35 AM 80.6 °F 86.2 °F 75.2 °F 84% 30.00 in 8.0 mi WSW 8.1 mph - N/A   Clear
3:55 AM 78.8 °F - 75.2 °F 89% 29.99 in 7.0 mi SW 8.1 mph - N/A   Clear
4:15 AM 78.8 °F - 75.2 °F 89% 29.99 in 7.0 mi WSW 6.9 mph - N/A   Clear
4:35 AM 78.8 °F - 75.2 °F 89% 29.99 in 7.0 mi WSW 9.2 mph - N/A   Clear
4:55 AM 78.8 °F - 75.2 °F 89% 29.99 in 7.0 mi SW 9.2 mph - N/A   Clear
5:15 AM 78.8 °F - 75.2 °F 89% 29.99 in 7.0 mi SW 6.9 mph - N/A   Clear
5:35 AM 78.8 °F - 75.2 °F 89% 30.00 in 6.0 mi SW 6.9 mph - N/A   Clear
5:55 AM 78.8 °F - 75.2 °F 89% 30.00 in 7.0 mi SW 8.1 mph 16.1 mph N/A   Clear
6:15 AM 78.8 °F - 75.2 °F 89% 30.01 in 7.0 mi SW 5.8 mph - N/A   Clear
6:35 AM 78.8 °F - 75.2 °F 89% 30.01 in 7.0 mi SW 4.6 mph - N/A   Clear
6:55 AM 78.8 °F - 75.2 °F 89% 30.01 in 5.0 mi WSW 4.6 mph - N/A   Clear
7:15 AM 78.8 °F - 75.2 °F 89% 30.02 in 5.0 mi WSW 8.1 mph - N/A   Clear
7:35 AM 80.6 °F 86.2 °F 75.2 °F 84% 30.02 in 5.0 mi WSW 5.8 mph - N/A   Clear
7:55 AM 80.6 °F 86.2 °F 75.2 °F 84% 30.02 in 5.0 mi WSW 8.1 mph - N/A   Clear
8:15 AM 82.4 °F 89.5 °F 75.2 °F 79% 30.03 in 5.0 mi West 8.1 mph - N/A   Clear
8:35 AM 82.4 °F 89.5 °F 75.2 °F 79% 30.03 in 6.0 mi WSW 4.6 mph - N/A   Clear
8:55 AM 82.4 °F 89.5 °F 75.2 °F 79% 30.03 in 6.0 mi Calm Calm - N/A   Partly Cloudy
9:15 AM 84.2 °F 92.3 °F 75.2 °F 74% 30.03 in 5.0 mi WSW 5.8 mph - N/A   Scattered Clouds
9:35 AM 84.2 °F 92.3 °F 75.2 °F 74% 30.03 in 5.0 mi SW 6.9 mph 17.3 mph N/A   Mostly Cloudy
9:55 AM 86.0 °F 93.4 °F 73.4 °F 66% 30.03 in 5.0 mi WSW 11.5 mph - N/A   Mostly Cloudy
10:15 AM 87.8 °F 95.6 °F 73.4 °F 62% 30.03 in 7.0 mi SW 6.9 mph - N/A   Scattered Clouds
10:35 AM 89.6 °F 98.2 °F 73.4 °F 59% 30.02 in 7.0 mi SSW 5.8 mph 18.4 mph N/A   Scattered Clouds
10:55 AM 89.6 °F 98.2 °F 73.4 °F 59% 30.03 in 7.0 mi WSW 9.2 mph - N/A   Mostly Cloudy
11:15 AM 89.6 °F 98.2 °F 73.4 °F 59% 30.02 in 6.0 mi WSW 3.5 mph - N/A   Mostly Cloudy
11:35 AM 91.4 °F 98.4 °F 71.6 °F 52% 30.02 in 8.0 mi WSW 5.8 mph - N/A   Mostly Cloudy
11:55 AM 91.4 °F 98.4 °F 71.6 °F 52% 30.02 in 7.0 mi WSW 6.9 mph - N/A   Scattered Clouds
12:15 PM 93.2 °F 98.8 °F 69.8 °F 46% 30.01 in 7.0 mi SW 10.4 mph - N/A   Clear
12:35 PM 95.0 °F 101.3 °F 69.8 °F 44% 30.00 in 8.0 mi SSW 6.9 mph - N/A   Clear
12:55 PM 95.0 °F 101.3 °F 69.8 °F 44% 29.99 in 8.0 mi SW 4.6 mph - N/A   Clear
1:15 PM 96.8 °F 103.1 °F 69.8 °F 41% 29.99 in 8.0 mi SW 9.2 mph - N/A   Clear
1:35 PM 95.0 °F 101.3 °F 69.8 °F 44% 29.97 in 8.0 mi SSW 8.1 mph 17.3 mph N/A   Scattered Clouds
1:55 PM 96.8 °F 101.8 °F 68.0 °F 39% 29.97 in 9.0 mi South 10.4 mph - N/A   Mostly Cloudy
2:15 PM 98.6 °F 104.1 °F 68.0 °F 37% 29.96 in 7.0 mi South 4.6 mph - N/A   Scattered Clouds
2:35 PM 100.4 °F 104.9 °F 66.2 °F 33% 29.95 in 8.0 mi WSW 3.5 mph - N/A   Partly Cloudy
2:55 PM 98.6 °F 104.1 °F 68.0 °F 37% 29.94 in 9.0 mi South 4.6 mph - N/A   Partly Cloudy
3:15 PM 98.6 °F 104.1 °F 68.0 °F 37% 29.93 in 7.0 mi South 10.4 mph 18.4 mph N/A   Scattered Clouds
3:35 PM 98.6 °F 104.1 °F 68.0 °F 37% 29.93 in 9.0 mi SSW 8.1 mph 18.4 mph N/A   Scattered Clouds
3:55 PM 100.4 °F 106.3 °F 68.0 °F 35% 29.92 in 9.0 mi SSW 4.6 mph 17.3 mph N/A   Partly Cloudy
4:15 PM 95.0 °F 101.3 °F 69.8 °F 44% 29.91 in 8.0 mi South 12.7 mph 20.7 mph N/A   Mostly Cloudy
4:35 PM 96.8 °F 103.1 °F 69.8 °F 41% 29.91 in 8.0 mi South 4.6 mph 16.1 mph N/A   Mostly Cloudy
4:55 PM 95.0 °F 101.3 °F 69.8 °F 44% 29.91 in 9.0 mi South 6.9 mph 17.3 mph N/A   Mostly Cloudy
5:15 PM 98.6 °F 105.5 °F 69.8 °F 39% 29.90 in 9.0 mi SW 8.1 mph 19.6 mph N/A   Scattered Clouds
5:35 PM 95.0 °F 103.2 °F 71.6 °F 47% 29.90 in 9.0 mi South 13.8 mph 20.7 mph N/A   Clear
5:55 PM 93.2 °F 100.5 °F 71.6 °F 49% 29.90 in 8.0 mi SW 9.2 mph 21.9 mph N/A   Mostly Cloudy
6:15 PM 93.2 °F 100.5 °F 71.6 °F 49% 29.90 in 9.0 mi SW 13.8 mph 24.2 mph N/A   Partly Cloudy
6:35 PM 93.2 °F 100.5 °F 71.6 °F 49% 29.90 in 7.0 mi South 10.4 mph 20.7 mph N/A   Clear
6:55 PM 91.4 °F 100.1 °F 73.4 °F 55% 29.90 in 8.0 mi South 13.8 mph 24.2 mph N/A   Clear
7:15 PM 91.4 °F 100.1 °F 73.4 °F 55% 29.90 in 9.0 mi SSW 9.2 mph 18.4 mph N/A   Clear
7:35 PM 89.6 °F 98.2 °F 73.4 °F 59% 29.90 in 8.0 mi SSW 10.4 mph 21.9 mph N/A   Clear
7:55 PM 87.8 °F 95.6 °F 73.4 °F 62% 29.91 in 7.0 mi South 10.4 mph 16.1 mph N/A   Clear
8:15 PM 86.0 °F 93.4 °F 73.4 °F 66% 29.91 in 7.0 mi SW 8.1 mph 21.9 mph N/A   Clear
8:35 PM 86.0 °F 93.4 °F 73.4 °F 66% 29.92 in 9.0 mi SSW 8.1 mph 19.6 mph N/A   Clear
8:55 PM 86.0 °F 91.8 °F 71.6 °F 62% 29.92 in 9.0 mi South 9.2 mph - N/A   Clear
9:15 PM 84.2 °F 89.6 °F 71.6 °F 66% 29.92 in 9.0 mi South 10.4 mph - N/A   Clear
9:35 PM 84.2 °F 90.9 °F 73.4 °F 70% 29.93 in 9.0 mi SW 8.1 mph - N/A   Clear
9:55 PM 82.4 °F 88.2 °F 73.4 °F 74% 29.94 in 8.0 mi SW 10.4 mph 17.3 mph N/A   Clear
10:15 PM 82.4 °F 89.5 °F 75.2 °F 79% 29.94 in 7.0 mi SSW 8.1 mph - N/A   Clear
10:35 PM 82.4 °F 89.5 °F 75.2 °F 79% 29.94 in 8.0 mi SW 6.9 mph - N/A   Clear
10:55 PM 80.6 °F 86.2 °F 75.2 °F 84% 29.94 in 7.0 mi SW 9.2 mph 16.1 mph N/A   Clear
11:15 PM 80.6 °F 86.2 °F 75.2 °F 84% 29.94 in 7.0 mi SW 9.2 mph - N/A   Clear
11:35 PM 80.6 °F 86.2 °F 75.2 °F 84% 29.95 in 7.0 mi SSW 6.9 mph 20.7 mph N/A   Clear
11:55 PM 80.6 °F 86.2 °F 75.2 °F 84% 29.95 in 7.0 mi SW 9.2 mph - N/A   Clear